Location: Chandolas
(44.4033°N, 4.2533°E)
Time: 10:07:57
(UTC+00:00)

ADEOS Rocket - Pass Details

Date: 15 November 2019
Orbit: 858 x 1307 km, 98.7° (Epoch: 12 December)

Event Time Altitude Azimuth Distance (km) Brightness Sun altitude
Rises 05:41:47 0° 148° (SSE) 4,282 7.2 -10.3°
Reaches altitude 10° 05:44:33 10° 144° (SE) 3,319 6.6 -9.8°
Maximum altitude 05:52:05 57° 69° (ENE) 1,493 4.3 -8.5°
Drops below altitude 10° 05:59:21 10° 354° (N) 3,203 5.5 -7.3°
Sets 06:01:58 0° 350° (N) 4,123 6.0 -6.9°
